N6ZQK Weather Reports


time (UTC)temp
F
wind
direction
speed
knots
gust
knots
rain 1hr
in
rain 24hr
in
rain mn
in
humidity
%
barometer
mb
20260903062403 56 201 0.9 3.5 0.00 0.00 0.00 81 1014.5
20260903061803 56 201 1.7 3.5 0.00 0.00 0.00 80 1014.5
20260903061203 56 201 0.9 3.5 0.00 0.00 0.00 80 1014.3
20260903060816 57 201 0.0 3.5 0.00 0.00 0.00 80 1014.3
20260903060003 57 201 0.0 1.7 0.00 0.00 0.00 80 1014.6
20260903055403 57 201 0.0 2.6 0.00 0.00 0.00 79 1014.7
20260903054803 57 201 0.9 2.6 0.00 0.00 0.00 79 1014.7
20260903054203 57 201 0.9 4.3 0.00 0.00 0.00 79 1014.8
20260903053603 57 201 0.0 2.6 0.00 0.00 0.00 78 1014.8
20260903053218 57 201 0.0 2.6 0.00 0.00 0.00 78 1014.9
20260903052617 57 201 0.0 2.6 0.00 0.00 0.00 78 1014.9
20260903051804 58 201 0.0 1.7 0.00 0.00 0.00 78 1014.7
20260903051203 58 201 0.0 1.7 0.00 0.00 0.00 77 1014.8
20260903050603 58 201 0.0 1.7 0.00 0.00 0.00 77 1014.8
20260903050003 58 201 0.0 1.7 0.00 0.00 0.00 77 1015.0
20260903045403 58 201 0.0 1.7 0.00 0.00 0.00 76 1015.0
20260903044803 58 201 0.0 1.7 0.00 0.00 0.00 76 1015.0
20260903044418 58 201 0.0 2.6 0.00 0.00 0.00 75 1015.0
20260903043818 58 201 0.0 3.5 0.00 0.00 0.00 75 1015.0
20260903043003 58 201 0.0 2.6 0.00 0.00 0.00 75 1014.9
20260903042403 59 201 0.0 1.7 0.00 0.00 0.00 75 1014.9
20260903041804 59 201 0.0 1.7 0.00 0.00 0.00 74 1014.9
20260903041204 59 201 0.0 1.7 0.00 0.00 0.00 74 1014.8
20260903040604 59 201 0.0 1.7 0.00 0.00 0.00 74 1014.7
20260903040004 59 201 0.0 1.7 0.00 0.00 0.00 74 1014.9
20260903035403 59 0 0.0 0.0 0.00 0.00 0.00 73 1014.8
20260903034804 60 0 0.0 0.0 0.00 0.00 0.00 73 1014.7
20260903034203 60 0 0.0 0.0 0.00 0.00 0.00 73 1014.7
20260903033818 60 0 0.0 0.0 0.00 0.00 0.00 73 1014.6
20260903033003 60 0 0.0 0.0 0.00 0.00 0.00 73 1014.6
20260903032403 60 201 0.0 1.7 0.00 0.00 0.00 73 1014.5
20260903031803 60 201 0.0 1.7 0.00 0.00 0.00 72 1014.5
20260903031204 60 201 0.9 3.5 0.00 0.00 0.00 72 1014.2
20260903030603 61 205 0.9 5.2 0.00 0.00 0.00 72 1014.1
20260903030004 61 221 0.0 5.2 0.00 0.00 0.00 71 1014.5
20260903025404 61 248 0.0 1.7 0.00 0.00 0.00 71 1014.5
20260903024803 62 0 0.0 0.0 0.00 0.00 0.00 70 1014.3
20260903024203 62 248 0.0 0.9 0.00 0.00 0.00 70 1014.4
20260903023604 62 248 0.0 3.5 0.00 0.00 0.00 70 1014.4
20260903023003 62 248 0.0 3.5 0.00 0.00 0.00 69 1014.5
20260903022403 62 248 0.0 2.6 0.00 0.00 0.00 69 1014.6
20260903021803 63 247 0.9 4.3 0.00 0.00 0.00 68 1014.6
20260903021203 63 247 0.9 4.3 0.00 0.00 0.00 67 1014.6
20260903020817 63 248 0.0 3.5 0.00 0.00 0.00 67 1014.6
20260903020004 64 230 0.0 4.3 0.00 0.00 0.00 66 1014.6
20260903015403 64 233 1.7 7.8 0.00 0.00 0.00 65 1014.5
20260903014803 64 236 1.7 7.8 0.00 0.00 0.00 64 1014.6
20260903014203 64 227 0.9 5.2 0.00 0.00 0.00 63 1014.6
20260903013603 64 222 1.7 5.2 0.00 0.00 0.00 63 1014.7
20260903013003 65 232 2.6 8.7 0.00 0.00 0.00 62 1014.7
20260903012403 65 238 2.6 10.4 0.00 0.00 0.00 62 1014.7
20260903011803 65 238 1.7 6.1 0.00 0.00 0.00 62 1014.7
20260903011203 65 233 1.7 7.8 0.00 0.00 0.00 62 1014.7
20260903010603 65 228 1.7 7.8 0.00 0.00 0.00 62 1014.8
20260903010003 65 218 1.7 7.8 0.00 0.00 0.00 61 1014.7
20260903005403 65 226 2.6 7.8 0.00 0.00 0.00 61 1014.6
20260903004803 65 217 3.5 10.4 0.00 0.00 0.00 60 1014.6
20260903004203 65 219 3.5 12.2 0.00 0.00 0.00 59 1014.6
20260903003603 65 219 3.5 13.0 0.00 0.00 0.00 60 1014.7
20260903003003 65 218 3.5 10.4 0.00 0.00 0.00 60 1014.6
20260903002403 65 209 4.3 12.2 0.00 0.00 0.00 59 1014.8
20260903002017 65 225 3.5 12.2 0.00 0.00 0.00 60 1014.8
20260903001203 66 239 1.7 7.8 0.00 0.00 0.00 60 1014.8
20260903000603 66 226 2.6 11.3 0.00 0.00 0.00 60 1014.8
20260903000003 66 236 3.5 12.2 0.00 0.00 0.00 60 1014.8
20260902235403 66 236 3.5 12.2 0.00 0.00 0.00 61 1014.7
20260902234803 65 244 2.6 11.3 0.00 0.00 0.00 60 1014.8
20260902234203 65 251 3.5 14.8 0.00 0.00 0.00 60 1014.8
20260902233603 66 231 4.3 14.8 0.00 0.00 0.00 60 1014.8
20260902233004 66 223 4.3 13.0 0.00 0.00 0.00 60 1014.9
20260902232403 66 229 3.5 10.4 0.00 0.00 0.00 60 1014.9
20260902231803 66 241 4.3 13.9 0.00 0.00 0.00 60 1014.9
20260902231203 66 235 4.3 13.9 0.00 0.00 0.00 61 1015.0
20260902230603 66 215 2.6 11.3 0.00 0.00 0.00 62 1015.0
20260902230004 66 215 1.7 8.7 0.00 0.00 0.00 62 1015.1
20260902225617 66 247 2.6 8.7 0.00 0.00 0.00 61 1015.1
20260902224803 66 229 5.2 14.8 0.00 0.00 0.00 61 1015.2
20260902224418 66 224 4.3 12.2 0.00 0.00 0.00 61 1015.1
20260902223603 66 247 4.3 13.9 0.00 0.00 0.00 60 1015.2
20260902223003 66 215 4.3 12.2 0.00 0.00 0.00 61 1015.1
20260902222403 65 221 4.3 12.2 0.00 0.00 0.00 62 1015.1
20260902221803 65 234 1.7 11.3 0.00 0.00 0.00 62 1015.2
20260902221203 65 258 1.7 7.8 0.00 0.00 0.00 62 1015.2
20260902220603 65 236 3.5 11.3 0.00 0.00 0.00 61 1015.3
20260902220003 66 218 4.3 11.3 0.00 0.00 0.00 61 1015.3
20260902215617 66 215 3.5 11.3 0.00 0.00 0.00 60 1015.2
20260902214803 66 214 3.5 11.3 0.00 0.00 0.00 60 1015.3
20260902214203 66 234 2.6 12.2 0.00 0.00 0.00 61 1015.2
20260902213817 66 237 2.6 12.2 0.00 0.00 0.00 60 1015.4
20260902213003 65 242 3.5 13.9 0.00 0.00 0.00 60 1015.4
20260902212403 65 219 1.7 12.2 0.00 0.00 0.00 61 1015.4
20260902211803 65 208 3.5 11.3 0.00 0.00 0.00 59 1015.4
20260902211418 65 206 4.3 11.3 0.00 0.00 0.00 59 1015.4
20260902210603 65 216 4.3 10.4 0.00 0.00 0.00 60 1015.6
20260902210003 65 231 4.3 13.0 0.00 0.00 0.00 61 1015.4
20260902205403 65 233 3.5 13.0 0.00 0.00 0.00 60 1015.4
20260902204803 65 219 3.5 13.0 0.00 0.00 0.00 59 1015.4
20260902204203 65 228 3.5 13.0 0.00 0.00 0.00 58 1015.4
20260902203603 66 234 2.6 10.4 0.00 0.00 0.00 57 1015.4
20260902203003 65 210 1.7 12.2 0.00 0.00 0.00 58 1015.3
20260902202403 65 212 2.6 12.2 0.00 0.00 0.00 60 1015.4
20260902201804 64 195 1.7 8.7 0.00 0.00 0.00 60 1015.7
20260902201203 64 171 1.7 12.2 0.00 0.00 0.00 60 1015.8
20260902200817 64 199 1.7 12.2 0.00 0.00 0.00 59 1015.8
20260902200003 64 194 2.6 7.8 0.00 0.00 0.00 61 1015.9
20260902195403 64 174 1.7 8.7 0.00 0.00 0.00 59 1015.8
20260902194803 64 192 1.7 8.7 0.00 0.00 0.00 59 1015.7
20260902194203 63 187 1.7 8.7 0.00 0.00 0.00 59 1016.1
20260902193603 62 187 2.6 8.7 0.00 0.00 0.00 59 1016.3
20260902193003 62 193 1.7 8.7 0.00 0.00 0.00 62 1016.3
20260902192403 62 233 0.9 3.5 0.00 0.00 0.00 61 1016.6
20260902191803 62 198 1.7 6.1 0.00 0.00 0.00 60 1016.7
20260902191203 62 216 1.7 7.8 0.00 0.00 0.00 61 1016.6
20260902190819 62 198 1.7 7.8 0.00 0.00 0.00 61 1016.6
20260902190003 61 179 3.5 8.7 0.00 0.00 0.00 61 1016.8
20260902185403 61 223 3.5 8.7 0.00 0.00 0.00 58 1016.8
20260902184803 61 221 2.6 6.1 0.00 0.00 0.00 60 1016.7
20260902184203 61 178 2.6 6.1 0.00 0.00 0.00 60 1016.6
20260902183603 61 190 2.6 6.1 0.00 0.00 0.00 61 1016.6
20260902183003 61 217 1.7 7.8 0.00 0.00 0.00 63 1016.6
20260902182403 61 169 1.7 6.1 0.00 0.00 0.00 63 1016.6
20260902181803 61 183 2.6 7.0 0.00 0.00 0.00 62 1016.5
20260902181203 61 190 3.5 8.7 0.00 0.00 0.00 63 1016.6
20260902180603 61 201 2.6 8.7 0.00 0.00 0.00 63 1016.6
20260902180218 60 223 1.7 7.0 0.00 0.00 0.00 64 1016.5
20260902175403 60 210 2.6 7.8 0.00 0.00 0.00 65 1016.8
20260902175017 60 199 2.6 7.8 0.00 0.00 0.00 66 1016.8
20260902174203 59 185 2.6 7.8 0.00 0.00 0.00 66 1016.7
20260902173603 59 200 0.9 5.2 0.00 0.00 0.00 66 1016.7
20260902173218 59 188 1.7 6.1 0.00 0.00 0.00 65 1016.7
20260902172403 59 192 1.7 6.1 0.00 0.00 0.00 66 1016.4
20260902171803 59 197 0.9 5.2 0.00 0.00 0.00 66 1016.5
20260902171203 59 202 1.7 7.0 0.00 0.00 0.00 66 1016.5
20260902170603 58 217 1.7 7.0 0.00 0.00 0.00 68 1016.7
20260902170003 58 205 0.9 5.2 0.00 0.00 0.00 68 1016.4
20260902165403 58 169 1.7 5.2 0.00 0.00 0.00 68 1016.3
20260902164803 57 157 0.9 6.1 0.00 0.00 0.00 69 1016.4
20260902164203 57 144 1.7 6.1 0.00 0.00 0.00 70 1016.3
20260902163603 57 129 0.9 5.2 0.00 0.00 0.00 70 1016.3
20260902163003 57 127 0.0 1.7 0.00 0.00 0.00 72 1016.3
20260902162617 56 127 0.9 5.2 0.00 0.00 0.00 71 1016.3
20260902161803 56 127 1.7 5.2 0.00 0.00 0.00 72 1016.4
20260902161418 56 127 1.7 5.2 0.00 0.00 0.00 74 1016.4
20260902160817 55 127 1.7 5.2 0.00 0.00 0.00 74 1016.6
20260902160005 55 127 0.9 5.2 0.00 0.00 0.00 74 1016.2
20260902155403 54 126 1.7 5.2 0.00 0.00 0.00 76 1016.4
20260902154804 54 126 1.7 5.2 0.00 0.00 0.00 77 1016.3
20260902154203 54 126 1.7 4.3 0.00 0.00 0.00 78 1016.3
20260902153603 53 126 1.7 5.2 0.00 0.00 0.00 78 1016.3
20260902153003 53 127 1.7 6.1 0.00 0.00 0.00 79 1016.3
20260902152403 53 125 2.6 6.1 0.00 0.00 0.00 79 1016.2
20260902151803 53 125 2.6 6.1 0.00 0.00 0.00 80 1016.2
20260902151203 53 126 1.7 6.1 0.00 0.00 0.00 80 1016.2
20260902150603 52 128 1.7 5.2 0.00 0.00 0.00 80 1016.4
20260902150003 52 130 2.6 5.2 0.00 0.00 0.00 81 1016.0
20260902145403 52 133 2.6 6.1 0.00 0.00 0.00 81 1015.9
20260902144803 52 138 2.6 7.8 0.00 0.00 0.00 81 1016.0
20260902144203 52 141 2.6 7.8 0.00 0.00 0.00 81 1015.9
20260902143603 51 142 1.7 6.1 0.00 0.00 0.00 81 1015.9
20260902143003 51 143 1.7 4.3 0.00 0.00 0.00 83 1016.1
20260902142403 51 143 0.9 4.3 0.00 0.00 0.00 83 1016.1
20260902141803 51 143 0.9 4.3 0.00 0.00 0.00 84 1016.1
20260902141203 50 143 0.9 3.5 0.00 0.00 0.00 84 1016.1
20260902140603 50 143 1.7 4.3 0.00 0.00 0.00 84 1016.1
20260902140003 50 143 0.9 4.3 0.00 0.00 0.00 85 1015.6
20260902135618 50 143 0.9 4.3 0.00 0.00 0.00 85 1015.6
20260902134803 50 143 1.7 4.3 0.00 0.00 0.00 85 1015.6
20260902134203 50 145 1.7 6.1 0.00 0.00 0.00 85 1015.5
20260902133603 50 148 1.7 6.1 0.00 0.00 0.00 85 1015.4
20260902133003 50 148 1.7 5.2 0.00 0.00 0.00 85 1015.2
20260902132618 50 148 1.7 5.2 0.00 0.00 0.00 84 1015.2
20260902132017 50 148 1.7 5.2 0.00 0.00 0.00 84 1015.2
20260902131203 51 148 0.9 4.3 0.00 0.00 0.00 84 1015.1
20260902130604 51 148 0.9 4.3 0.00 0.00 0.00 84 1015.0
20260902130003 51 148 1.7 6.1 0.00 0.00 0.00 84 1014.7
20260902125617 51 148 1.7 6.1 0.00 0.00 0.00 84 1014.7
20260902124803 51 148 1.7 4.3 0.00 0.00 0.00 84 1014.8
20260902124203 51 148 1.7 4.3 0.00 0.00 0.00 84 1014.9
20260902123818 51 148 1.7 5.2 0.00 0.00 0.00 84 1014.8
20260902123003 51 147 1.7 5.2 0.00 0.00 0.00 84 1014.9
20260902122404 51 147 1.7 4.3 0.00 0.00 0.00 84 1014.9
20260902121803 51 147 0.9 4.3 0.00 0.00 0.00 84 1014.8
20260902121418 51 147 0.9 4.3 0.00 0.00 0.00 84 1014.8
20260902120603 50 147 0.9 3.5 0.00 0.00 0.00 84 1014.7
20260902120004 50 147 0.9 5.2 0.00 0.00 0.00 85 1014.5
20260902115403 50 146 1.7 4.3 0.00 0.00 0.00 85 1014.6
20260902114803 50 144 2.6 5.2 0.00 0.00 0.00 85 1014.6
20260902114203 50 143 2.6 5.2 0.00 0.00 0.00 85 1014.5
20260902113603 50 142 2.6 6.1 0.00 0.00 0.00 85 1014.6
20260902113003 50 141 3.5 7.8 0.00 0.00 0.00 85 1014.4
20260902112617 50 143 3.5 7.8 0.00 0.00 0.00 85 1014.5
20260902111803 51 146 2.6 5.2 0.00 0.00 0.00 85 1014.5
20260902111203 51 146 1.7 5.2 0.00 0.00 0.00 85 1014.6
20260902110603 51 148 1.7 5.2 0.00 0.00 0.00 85 1014.6
20260902110217 51 151 1.7 5.2 0.00 0.00 0.00 85 1014.6
20260902105617 51 160 1.7 6.1 0.00 0.00 0.00 84 1014.6
20260902104803 51 161 1.7 5.2 0.00 0.00 0.00 84 1014.6
20260902104203 51 161 2.6 6.1 0.00 0.00 0.00 84 1014.6
20260902103603 51 160 2.6 6.1 0.00 0.00 0.00 84 1014.6
20260902103003 51 158 2.6 6.1 0.00 0.00 0.00 84 1014.7
20260902102403 51 156 1.7 5.2 0.00 0.00 0.00 83 1014.7
20260902101803 51 154 2.6 5.2 0.00 0.00 0.00 83 1014.7
20260902101203 51 152 2.6 6.1 0.00 0.00 0.00 83 1014.7
20260902100603 51 156 2.6 6.1 0.00 0.00 0.00 83 1014.7
20260902100003 51 157 1.7 5.2 0.00 0.00 0.00 82 1014.7
20260902095403 52 156 1.7 6.1 0.00 0.00 0.00 81 1014.7
20260902094803 52 154 0.9 4.3 0.00 0.00 0.00 80 1014.7
20260902094417 52 154 0.9 3.5 0.00 0.00 0.00 80 1014.8
20260902093603 52 154 0.0 3.5 0.00 0.00 0.00 79 1014.8
20260902093003 52 154 0.9 3.5 0.00 0.00 0.00 79 1014.8
20260902092404 52 154 0.9 4.3 0.00 0.00 0.00 79 1014.7
20260902091803 52 156 1.7 6.1 0.00 0.00 0.00 79 1014.7
20260902091203 52 157 2.6 7.8 0.00 0.00 0.00 79 1014.6
20260902090603 52 158 2.6 7.8 0.00 0.00 0.00 79 1014.4
20260902090004 53 152 3.5 10.4 0.00 0.00 0.00 79 1014.6
20260902085403 53 152 4.3 10.4 0.00 0.00 0.00 79 1014.6
20260902084803 53 159 3.5 10.4 0.00 0.00 0.00 79 1014.6
20260902084203 53 161 2.6 10.4 0.00 0.00 0.00 79 1014.6
20260902083603 53 156 2.6 11.3 0.00 0.00 0.00 79 1014.7
20260902083003 53 151 4.3 10.4 0.00 0.00 0.00 79 1014.5
20260902082618 53 150 4.3 11.3 0.00 0.00 0.00 79 1014.5
20260902081803 53 153 3.5 10.4 0.00 0.00 0.00 79 1014.5
20260902081203 52 146 3.5 10.4 0.00 0.00 0.00 79 1014.6
20260902080603 52 144 4.3 10.4 0.00 0.00 0.00 79 1014.4
20260902080218 52 150 4.3 11.3 0.00 0.00 0.00 79 1014.5
20260902075403 52 152 5.2 12.2 0.00 0.00 0.00 79 1014.8
20260902074804 52 151 5.2 10.4 0.00 0.00 0.00 79 1014.7
20260902074417 52 147 4.3 10.4 0.00 0.00 0.00 79 1014.6
20260902073603 52 142 3.5 10.4 0.00 0.00 0.00 79 1014.6
20260902073003 52 144 3.5 11.3 0.00 0.00 0.00 79 1014.7
20260902072617 52 143 4.3 11.3 0.00 0.00 0.00 79 1014.5
20260902072017 53 142 4.3 11.3 0.00 0.00 0.00 79 1014.3
20260902071203 53 147 4.3 8.7 0.00 0.00 0.00 78 1014.4
20260902070603 53 155 4.3 6.1 0.00 0.00 0.00 78 1014.6
20260902070005 53 158 3.5 7.8 0.00 0.00 0.00 78 1015.0
20260902065403 53 157 2.6 6.1 0.00 0.00 0.00 77 1015.0
20260902064803 54 161 2.6 6.1 0.00 0.00 0.00 77 1014.8
20260902064418 54 162 2.6 6.1 0.00 0.00 0.00 77 1014.9
20260902063603 54 163 1.7 4.3 0.00 0.00 0.00 77 1015.0
20260902063003 54 163 0.9 4.3 0.00 0.00 0.00 77 1015.0